Current weather by "City, St" or "zip code"  
 
Advertise Here

Current Conditions: Latrobe / Westmoreland, PA

Overcast


28.0 F

Last Updated on Jan 27 2021, 2:50 pm EST
Humidity: 74%
Wind Speed: NW 5.8 mph
Barometer 30.15 in
Dewpoint: 21.2 F
Visibility: 15.00 mi
Precip: --
Heat Index: NA
Wind Chill: 22 F
Current conditions at:

Latrobe / Westmoreland, PA (KLBE)

Lat: 40.2731 Lon: 79.41033

Local Radar Image active severe weather and emergency alerts image image weather storm and storm spotter reports image weather observation monitoring service image
Local
Radar
Active
Alerts
Storm Reports Obs
Monitoring

Sign-up For Email & Text Message Weather Alert Notification Services


Advertise Here

Observation History for Latrobe / Westmoreland, PA


Time Wind
(mph)
Vis
(mi)
Weather Precip (in) Temperature (F) Relative
Humidity
Wind
Chill
(F)
Heat
Index
(F)
Pressure
Air Dwpt altimeter
(in)
sea level
(mb)
Rmks
2:50 pm EST NW 5.8 15.00 Overcast -- 28.0 21.2 74% 22 NA 30.15 M
1:50 pm EST NW 6.9 15.00 Overcast -- 28.0 21.2 74% 21 NA 30.16 M
11:47 am EST 6.9 15.00 Overcast -- 28.0 21.2 74% 21 NA 30.18 M
10:47 am EST NW 9.2 10.00 Overcast -- 28.0 23.0 80% 19 NA 30.18 M
9:47 am EST 6.9 10.00 Overcast -- 30.0 21.2 69% 23 NA 30.14 M
8:47 am EST W 5.8 10.00 Overcast -- 30.0 23.0 75% 24 NA 30.13 M
7:47 am EST NW 9.2 10.00 Overcast -- 30.0 23.0 75% 22 NA 30.14 M
6:47 am EST W 11.5 10.00 Overcast -- 30.0 26.6 86% 20 NA 30.11 M
5:55 am EST W 10.4 10.00 Overcast -- 30.0 26.6 86% 21 NA 30.08 M
4:55 am EST W 11.5 10.00 Overcast -- 30.0 26.6 86% 20 NA 30.07 M
3:55 am EST W 11.5 10.00 Overcast -- 32.0 28.4 87% 23 NA 30.04 M
2:55 am EST W 10.4 10.00 Overcast -- 34.0 28.4 81% 26 NA 30.02 M
1:55 am EST W 10.4 10.00 Overcast -- 34.0 32.0 93% 26 NA 29.97 M
12:55 am EST W 12.7 10.00 Overcast -- 36.0 32.0 87% 28 NA 29.94 M
11:55 pm EST W 6.9 10.00 Overcast -- 37.0 33.8 87% 32 NA 29.92 M
10:55 pm EST W 12.7 10.00 Overcast -- 37.0 33.8 87% 29 NA 29.89 M
9:50 pm EST W 9.2 7.00 Overcast -- 39.0 37.4 93% 33 NA 29.85 M
8:50 pm EST W 17.3 3.00 Light Rain -- 39.0 37.4 93% 30 NA 29.85 M
7:50 pm EST SW 11.5 G 23.0 8.00 Overcast -- 41.0 35.6 81% 34 NA 29.83 M
6:50 pm EST SW 20.7 G 32.2 7.00 Overcast and Breezy -- 43.0 35.6 76% 34 NA 29.82 M
5:50 pm EST SW 21.9 G 33.4 10.00 Overcast and Breezy -- 43.0 35.6 76% 34 NA 29.80 M
4:50 pm EST SW 26.5 G 38.0 10.00 Overcast and Windy -- 43.0 37.4 81% 33 NA 29.79 M
3:50 pm EST SW 25.3 G 36.8 10.00 Overcast and Breezy -- 45.0 39.2 81% 36 NA 29.75 M

Regional Weather Observation


Latrobe / Westmoreland, PA (KLBE)

Overcast
28.0 F

Butler, Butler County Airport/K W Scholter Field, PA (KBTP)

Overcast
29.0 F

Indiana / Stewart Field, PA (KIDI)

Overcast
28.0 F

Somerset County Airport, PA (K2G9)

Overcast
27.0 F

Pittsburgh, Pittsburgh International Airport, PA (KPIT)

Overcast
30.0 F

Unknown Station (KPJC)

Overcast
32.0 F